Wind_Speed
35 33 29 26 24 23 21 20 20 19 20 20 21 20 20 17 18 18 15 16 18 19 20 17 20 22 22 25 23 21 21 23 23 22 20 20 20 20 19 18 18 17 16
41 35 32 28 26 23 20 19 19 19 20 20 20 21 20 17 19 17 17 15 22 21 23 19 21 22 23 24 21 21 22 23 22 22 20 19 18 17 18 17 16 14 13
41 38 33 30 26 23 20 19 18 19 21 22 22 22 20 19 18 17 15 16 21 26 22 21 19 21 22 22 22 22 20 19 20 20 21 22 20 18 14 12 10 11 12
42 39 34 31 27 23 21 20 20 21 23 24 24 23 22 21 19 16 14 20 22 23 23 21 19 20 20 20 19 19 18 17 18 17 18 17 15 12 13 11 12 14 15
41 37 34 31 26 24 23 24 24 24 26 26 25 25 23 22 18 14 17 23 24 24 22 21 21 21 20 20 19 18 17 16 16 16 18 17 16 15 14 13 14 16 17
40 37 34 30 26 24 25 27 26 27 28 28 27 25 24 22 16 16 21 25 24 24 23 22 22 21 20 20 20 19 18 17 16 17 18 18 18 16 15 16 17 17 17
41 37 33 30 27 26 27 29 28 27 28 29 27 24 23 18 16 21 25 26 25 24 23 23 22 21 20 19 19 19 17 16 16 17 17 18 17 16 16 16 16 16 16
40 36 34 30 28 27 29 31 30 29 30 27 24 24 20 17 21 26 27 26 24 24 23 23 22 20 19 18 18 17 16 15 16 16 17 17 16 15 15 16 16 15 15
39 36 33 31 28 27 30 32 33 31 28 25 25 23 19 21 25 28 28 26 24 23 23 22 20 19 18 17 16 15 15 14 14 15 15 16 15 15 15 14 14 15 14
40 38 34 32 30 28 29 33 34 34 30 27 24 21 21 26 28 29 28 26 23 22 21 20 18 17 16 15 14 13 13 13 13 14 14 14 13 14 13 14 15 14 14
41 39 34 32 31 29 29 30 33 32 31 25 23 23 27 29 30 30 28 26 24 21 19 18 16 15 13 12 11 11 12 12 12 12 12 12 12 12 12 13 13 13 13
43 39 35 33 31 30 30 30 31 32 30 27 27 30 31 31 30 30 28 26 23 19 17 16 14 13 12 10 9 9 9 10 10 10 10 10 10 10 10 10 11 12 12
44 39 34 33 31 32 31 31 30 30 29 28 30 32 31 31 30 29 27 25 23 19 15 14 12 11 9 8 8 7 6 7 7 7 7 7 7 7 8 8 9 10 10
42 39 34 31 31 32 30 30 29 30 30 31 32 32 31 32 30 29 27 25 22 19 15 11 10 9 8 6 5 5 4 4 4 4 4 4 5 5 5 6 7 7 8
40 38 36 33 31 32 32 30 30 29 31 32 32 32 31 30 29 26 24 22 20 17 15 12 10 8 6 5 4 3 3 3 3 3 2 1 2 2 3 4 4 5 7
33 40 38 34 32 31 33 30 29 29 29 31 32 31 29 27 26 24 23 21 18 16 14 12 11 10 7 6 5 5 4 4 4 4 3 2 1 1 2 3 3 3 5
51 40 41 36 32 31 30 29 28 28 28 29 29 28 27 26 24 23 21 19 17 15 14 13 11 10 8 6 5 5 5 5 5 4 5 5 4 3 2 2 2 3 4
55 53 47 39 31 33 32 29 29 28 28 27 27 27 26 24 23 21 20 18 16 15 14 12 11 10 7 5 5 6 6 6 7 7 6 6 6 5 4 3 3 2 3
53 51 44 34 31 34 33 30 27 26 28 28 26 26 25 24 23 21 19 17 16 14 12 11 10 9 6 5 5 6 8 9 9 9 10 9 9 9 8 7 5 5 4
46 48 49 40 37 37 36 32 27 25 27 27 27 26 26 24 23 20 19 19 17 14 12 11 9 7 6 6 6 7 8 8 9 10 11 12 11 10 10 9 6 8 8
51 42 41 42 44 42 39 36 34 32 30 26 26 25 26 24 22 20 17 18 17 14 11 10 9 8 7 6 7 7 7 10 12 13 14 14 14 14 13 12 14 15 14
46 40 40 38 40 41 38 36 34 31 30 26 25 25 23 21 19 17 16 15 14 13 12 11 10 9 7 5 6 8 5 6 9 11 12 13 16 16 15 14 16 17 14
29 33 35 34 34 37 38 38 36 31 29 30 28 24 23 22 21 18 15 15 14 14 12 12 12 10 8 6 10 11 6 6 9 9 13 15 16 13 13 10 12 14 14
40 26 33 35 34 35 39 40 38 36 34 33 30 27 24 22 19 17 17 16 15 12 12 13 14 11 10 15 18 16 19 20 14 10 17 17 15 9 10 14 12 11 11
38 37 33 23 27 44 24 40 38 32 31 30 27 20 22 17 14 16 17 16 16 15 7 7 11 17 17 14 13 12 15 18 19 20 9 9 12 14 12 12 11 12 13
29 29 23 22 21 38 52 35 34 28 27 27 28 23 18 21 21 21 22 20 15 16 13 13 15 14 14 19 18 15 8 10 11 10 12 13 16 18 16 16 15 14 17
Wind_Direction
180 175 174 176 170 166 169 172 173 172 170 167 164 155 153 146 146 144 143 135 118 123 124 118 107 111 105 99 95 97 94 96 98 97 91 91 86 84 81 74 73 67 66
173 176 175 176 173 172 173 175 175 174 171 166 165 159 156 151 150 143 140 129 127 123 119 111 109 103 108 103 102 103 103 95 95 97 94 89 84 82 81 76 68 66 55
174 175 176 176 175 175 176 177 174 171 165 164 162 163 158 154 154 143 139 129 131 121 129 122 116 110 109 109 105 101 100 95 96 97 97 91 86 84 86 80 66 53 52
175 174 174 176 177 176 176 171 161 157 156 157 160 160 157 159 152 146 140 133 131 129 122 127 120 113 112 110 106 100 96 88 82 81 89 98 100 102 84 71 60 62 62
176 175 175 175 176 175 172 162 153 149 154 157 158 158 160 156 150 145 141 135 132 127 129 125 118 114 111 107 104 99 93 87 83 83 83 83 82 78 74 70 68 65 65
177 177 175 173 173 172 168 159 154 155 156 158 158 159 156 153 151 146 140 136 131 129 127 123 117 114 111 107 103 99 95 91 89 86 83 82 80 79 78 72 66 65 64
178 177 175 173 173 170 168 158 157 157 158 158 157 159 157 157 153 145 140 137 134 131 127 124 120 116 114 110 104 100 95 93 89 85 82 79 75 73 70 68 65 63 62
178 176 175 174 172 171 170 164 161 160 159 158 168 162 162 160 151 145 143 139 136 134 131 127 122 118 115 111 106 102 98 92 88 84 80 78 75 73 71 67 65 63 62
177 176 175 174 173 171 171 172 167 165 164 167 169 164 165 158 150 147 146 143 141 139 133 131 126 123 116 111 107 102 98 94 89 85 82 79 76 73 70 69 66 63 61
179 177 177 174 174 172 171 176 174 173 171 173 169 167 162 155 151 150 149 147 146 143 138 135 133 129 124 117 110 104 98 94 90 88 84 80 77 75 72 68 64 60 58
180 178 177 176 174 170 166 168 175 177 183 180 172 165 159 156 155 155 154 152 151 150 145 141 138 134 129 122 114 106 101 98 92 89 87 84 79 75 71 68 63 58 55
180 179 178 177 174 169 165 163 166 173 181 178 168 163 162 160 159 159 160 158 157 157 154 149 145 141 135 127 122 115 109 103 97 92 88 86 81 76 71 66 61 55 52
180 178 180 177 174 171 167 164 166 167 169 167 165 163 163 163 162 163 163 163 163 166 165 159 157 153 146 138 131 124 117 110 101 93 90 86 82 74 66 60 56 53 53
182 180 180 180 175 174 169 169 166 166 166 165 166 166 167 167 167 167 168 168 168 168 171 171 168 166 165 158 150 143 134 134 124 112 95 83 78 71 61 52 49 50 46
181 184 182 180 181 178 174 175 171 169 168 167 168 171 172 171 171 170 170 171 170 172 175 178 182 184 186 190 197 200 193 186 174 164 143 111 84 65 49 42 44 44 33
196 190 184 181 186 187 183 182 178 174 171 172 173 174 175 176 174 174 174 176 176 179 184 188 193 195 204 220 228 232 235 238 231 221 214 208 225 312 1 2 6 354 2
185 197 189 184 187 194 188 187 185 182 179 177 177 179 179 178 179 180 181 184 187 189 193 196 199 202 207 220 239 240 248 252 251 250 235 232 234 241 272 336 325 324 348
188 191 188 187 191 198 195 192 193 191 188 185 184 182 182 182 184 186 189 190 194 200 204 206 204 207 215 229 245 257 265 265 260 259 254 246 246 245 251 271 297 321 351
187 187 188 196 208 201 198 196 195 198 195 194 193 190 188 188 187 191 193 196 202 205 205 204 205 209 226 255 264 270 278 281 272 268 257 253 254 251 251 255 259 272 290
194 187 192 194 207 204 200 196 195 198 197 196 198 198 197 194 192 193 199 209 210 205 204 209 214 223 240 256 265 278 284 275 267 261 254 251 253 256 257 249 247 255 265
191 193 195 196 201 200 199 197 196 193 192 194 199 198 194 195 194 199 203 206 211 215 220 223 230 237 253 268 289 305 306 290 275 263 262 262 258 259 258 255 246 248 252
206 202 198 201 207 205 200 200 201 194 196 196 191 192 195 196 200 203 205 209 218 225 229 233 236 243 251 267 280 287 282 293 291 273 262 259 257 257 259 267 271 262 255
201 202 215 209 206 209 202 204 204 203 202 198 197 195 196 194 197 201 204 211 215 219 220 228 230 233 240 245 274 267 264 257 270 241 270 279 279 257 250 255 272 271 259
211 224 217 204 205 215 213 211 206 202 203 201 198 200 203 209 205 201 205 212 217 218 220 229 226 223 220 250 291 283 268 265 277 281 277 268 252 236 267 267 271 278 279
190 206 213 207 217 226 215 222 214 207 207 205 204 203 211 210 234 216 245 226 226 228 334 298 231 238 252 265 270 274 273 287 280 266 268 292 294 287 274 265 287 281 282
203 210 201 195 190 204 227 207 223 212 199 210 206 195 216 228 243 226 239 232 256 234 278 248 241 240 263 266 257 272 265 286 283 280 282 302 312 303 285 290 283 294 288
Height
1514 1519 1523 1526 1529 1532 1536 1539 1541 1543 1545 1548 1550 1553 1555 1557 1558 1560 1561 1564 1565 1567 1568 1570 1570 1571 1571 1573 1574 1574 1574 1574 1574 1575 1575 1575 1576 1576 1576 1575 1575 1574 1573
1508 1516 1521 1525 1527 1531 1535 1538 1541 1542 1544 1547 1550 1553 1556 1557 1559 1560 1562 1564 1566 1567 1570 1571 1572 1573 1574 1575 1576 1577 1577 1577 1577 1577 1577 1578 1578 1578 1578 1577 1577 1576 1575
1508 1514 1520 1524 1528 1531 1534 1537 1539 1541 1544 1547 1551 1554 1556 1558 1560 1562 1563 1565 1567 1569 1571 1573 1574 1575 1576 1577 1578 1579 1579 1580 1580 1580 1580 1580 1581 1581 1580 1579 1578 1577 1576
1507 1512 1519 1523 1527 1531 1533 1536 1538 1541 1544 1548 1551 1554 1556 1558 1560 1562 1564 1566 1568 1571 1572 1574 1575 1577 1578 1579 1580 1580 1581 1582 1582 1583 1582 1582 1582 1582 1581 1581 1580 1579 1578
1508 1513 1517 1522 1527 1530 1533 1536 1538 1540 1544 1548 1551 1554 1556 1558 1561 1563 1565 1566 1568 1571 1574 1575 1577 1578 1580 1581 1582 1582 1583 1584 1584 1584 1584 1584 1584 1583 1583 1582 1582 1581 1580
1508 1512 1517 1521 1526 1530 1533 1535 1538 1540 1544 1548 1551 1554 1556 1558 1561 1563 1565 1567 1570 1572 1574 1577 1578 1580 1582 1583 1584 1584 1585 1586 1586 1586 1586 1586 1586 1585 1585 1584 1583 1582 1582
1507 1512 1516 1520 1524 1528 1532 1535 1538 1541 1545 1548 1551 1554 1557 1559 1561 1563 1566 1569 1571 1574 1576 1578 1580 1581 1583 1584 1585 1586 1587 1588 1588 1588 1588 1588 1588 1587 1587 1586 1585 1584 1584
1506 1511 1515 1520 1523 1527 1531 1534 1538 1541 1544 1548 1551 1554 1558 1560 1562 1564 1567 1571 1574 1576 1578 1580 1581 1583 1585 1586 1587 1588 1589 1590 1590 1590 1590 1590 1590 1589 1588 1588 1587 1586 1586
1507 1511 1515 1518 1522 1526 1529 1533 1537 1541 1544 1548 1551 1553 1557 1560 1563 1565 1569 1572 1576 1578 1579 1581 1583 1585 1587 1588 1589 1590 1590 1591 1591 1591 1592 1592 1592 1592 1591 1590 1589 1588 1587
1506 1510 1514 1517 1520 1523 1527 1532 1536 1540 1544 1547 1550 1553 1557 1560 1563 1567 1570 1573 1577 1579 1581 1582 1584 1586 1588 1589 1590 1591 1591 1592 1592 1592 1593 1593 1593 1593 1592 1592 1591 1590 1589
1506 1508 1513 1516 1519 1522 1525 1530 1534 1539 1544 1547 1550 1553 1557 1561 1564 1567 1571 1573 1576 1580 1582 1584 1585 1587 1589 1590 1591 1592 1592 1593 1593 1593 1594 1594 1594 1594 1594 1593 1592 1592 1591
1502 1507 1510 1516 1519 1521 1524 1528 1532 1537 1542 1546 1549 1553 1557 1561 1564 1567 1570 1573 1576 1580 1583 1585 1586 1588 1590 1591 1592 1592 1593 1593 1594 1594 1594 1594 1594 1595 1595 1594 1594 1593 1593
1500 1506 1511 1514 1518 1521 1523 1527 1530 1535 1540 1545 1549 1553 1557 1561 1564 1567 1570 1573 1575 1579 1582 1585 1587 1588 1590 1591 1592 1593 1593 1594 1594 1595 1595 1595 1595 1595 1595 1595 1594 1594 1593
1501 1503 1511 1516 1518 1522 1524 1526 1530 1533 1538 1543 1548 1552 1556 1559 1563 1567 1570 1573 1576 1579 1582 1584 1586 1588 1590 1591 1592 1593 1594 1594 1595 1595 1595 1596 1596 1596 1596 1596 1596 1595 1594
1500 1505 1509 1512 1519 1522 1524 1526 1529 1533 1537 1542 1547 1551 1555 1559 1563 1568 1571 1574 1576 1579 1582 1584 1586 1587 1589 1590 1591 1592 1593 1594 1594 1595 1595 1596 1596 1596 1596 1596 1595 1595 1595
1499 1504 1506 1510 1518 1522 1524 1526 1529 1532 1536 1541 1545 1550 1555 1560 1564 1568 1571 1575 1577 1579 1581 1583 1585 1587 1588 1589 1591 1592 1593 1594 1594 1594 1594 1594 1595 1595 1595 1595 1595 1595 1595
1487 1498 1504 1507 1514 1520 1523 1526 1529 1533 1536 1540 1544 1549 1555 1559 1563 1567 1571 1574 1576 1578 1580 1582 1584 1586 1588 1589 1590 1591 1592 1592 1593 1593 1593 1593 1593 1594 1594 1594 1594 1594 1593
1484 1489 1497 1504 1508 1516 1520 1522 1528 1532 1535 1539 1543 1548 1554 1558 1562 1566 1570 1573 1575 1578 1580 1581 1583 1585 1587 1589 1590 1590 1591 1591 1591 1592 1593 1592 1592 1592 1593 1593 1593 1594 1593
1478 1487 1492 1499 1506 1510 1515 1521 1525 1531 1534 1538 1543 1547 1552 1556 1560 1564 1569 1571 1573 1575 1579 1580 1582 1584 1586 1588 1589 1590 1589 1590 1590 1590 1590 1590 1590 1590 1590 1591 1592 1592 1591
1475 1482 1488 1496 1500 1505 1512 1518 1524 1529 1532 1537 1541 1545 1550 1554 1557 1562 1566 1569 1571 1574 1576 1579 1581 1583 1585 1586 1586 1587 1588 1587 1587 1588 1588 1587 1588 1588 1589 1589 1589 1589 1589
1471 1480 1485 1492 1495 1500 1508 1515 1520 1523 1528 1534 1539 1544 1548 1552 1556 1560 1563 1567 1570 1573 1576 1578 1580 1582 1583 1584 1585 1585 1585 1585 1585 1585 1585 1585 1585 1585 1585 1586 1585 1586 1586
1468 1477 1482 1488 1494 1500 1509 1515 1520 1523 1528 1534 1538 1542 1546 1549 1554 1557 1562 1566 1569 1572 1574 1577 1578 1581 1582 1583 1582 1582 1581 1581 1582 1581 1581 1581 1582 1582 1582 1582 1582 1582 1582
1464 1475 1482 1489 1495 1500 1506 1511 1516 1522 1528 1532 1536 1540 1543 1547 1551 1555 1560 1564 1567 1569 1572 1574 1576 1578 1579 1580 1580 1581 1579 1577 1576 1576 1578 1578 1578 1578 1578 1578 1578 1579 1578
1465 1476 1484 1490 1493 1497 1503 1508 1511 1516 1523 1529 1531 1535 1540 1544 1548 1552 1556 1560 1563 1565 1568 1572 1574 1575 1575 1573 1575 1575 1576 1576 1574 1574 1573 1573 1573 1573 1574 1574 1575 1574 1574
1466 1476 1470 1477 1485 1487 1497 1506 1508 1515 1521 1526 1531 1534 1538 1541 1545 1548 1552 1555 1558 1562 1566 1568 1569 1566 1572 1572 1572 1572 1573 1573 1571 1570 1569 1568 1570 1570 1570 1571 1570 1571 1571
1462 1470 1475 1479 1488 1495 1493 1496 1508 1513 1519 1524 1528 1530 1532 1536 1541 1545 1549 1551 1554 1557 1557 1558 1562 1565 1567 1568 1569 1570 1569 1570 1568 1568 1567 1567 1566 1567 1568 1568 1567 1567 1566